Regional Weather Roundup
Issued by NWS

Home | Current Version | Previous Version | Text Only | Print | Product List | Glossary On
Versions: 1 2 3 4 5 6 7 8 9 10 11 12 13 14 15 16 17 18 19 20 21 22 23 24 25 26 27 28 29 30 31 32 33 34 35 36 37 38 39 40 41 42 43 44 45 46 47 48 49 50
000
ASUS43 KIND 030509
RWRIN

WEATHER ROUNDUP FOR INDIANA
NATIONAL WEATHER SERVICE INDIANAPOLIS IN
100 AM EDT WED SEP 03 2014

NOTE: "FAIR" INDICATES FEW OR NO CLOUDS BELOW 12,000 FEET WITH NO
SIGNIFICANT WEATHER AND/OR OBSTRUCTIONS TO VISIBILITY.

* - STATION DOES NOT REPORT WEATHER SUCH AS PRECIPITATION OR FOG.

+ - STATION NOT QUALITY CONTROLLED BY THE NATIONAL WEATHER SERVICE.
    USE DATA WITH CAUTION...ESPECIALLY DEWPOINT AND RELATIVE
    HUMIDITY OBSERVATIONS.

INZ001>003-010>013-019-020-030600-
NORTHWEST INDIANA

CITY           SKY/WX    TMP DP  RH WIND       PRES   REMARKS
GARY /AIRPORT/ CLEAR     68  63  85 CALM      29.98R
KNOX *+        CLEAR     64  61  91 CALM      29.98R
LA PORTE +     PTCLDY    64  64 100 CALM      29.99R
MICHIGAN CITY+ CLEAR     63  63 100 CALM      29.98S
MONTICELLO +   CLEAR     64  64  99 CALM      29.99R FOG
RENSSELAER +   CLEAR     63  63 100 CALM      30.00R
VALPARAISO     PTCLDY    67  64  90 CALM      29.99R

$$

LMZ046-743>745-030600-
SOUTHERN LAKE MICHIGAN

STATION/POSITION TIME  TEMP WIND        PRES
                       AIR  DIR/SP/G
                 (UTC) (F)  (DEG/KT/KT) (MB)
MICHIGAN CITY    0500   70  150/  6/  7   N/A

$$

INZ004-005-014>016-021>024-030600-
NORTH CENTRAL INDIANA

CITY           SKY/WX    TMP DP  RH WIND       PRES   REMARKS
GOSHEN         CLEAR     63  61  93 S3        29.99R
LOGANSPORT +   CLEAR     64  64 100 SW6       30.01R
PERU/GRISSOM   CLEAR     66  66 100 SW8       30.00R
ROCHESTER +    CLEAR     70  70 100 CALM      30.00S
SOUTH BEND     MOCLDY    67  61  81 S3        29.99R
WARSAW +       CLEAR     61  61 100 CALM      30.00S

$$

INZ006>009-017-018-025>027-030600-
NORTHEAST INDIANA

CITY           SKY/WX    TMP DP  RH WIND       PRES   REMARKS
ANGOLA *+      CLOUDY    59  52  77 CALM      30.00R VSB 1/2
AUBURN +       CLEAR     63  61  94 CALM      30.00S FOG
FORT WAYNE     PTCLDY    63  63 100 SW5       30.00S
HUNTINGTON +   CLEAR     67  67  98 SW3       30.00S

$$

INZ028-029-035-036-043>045-051>053-030600-
WEST CENTRAL INDIANA

CITY           SKY/WX    TMP DP  RH WIND       PRES   REMARKS
GREENCASTLE +  CLEAR     64  64 100 CALM      30.03S
LAFAYETTE      FOG       65  65 100 CALM      30.00S VSB 3/4
TERRE HAUTE    PTCLDY    64  63  96 CALM      30.02R FOG

$$

INZ030>032-037>040-046>048-054>057-064-065-030600-
CENTRAL INDIANA

CITY           SKY/WX    TMP DP  RH WIND       PRES   REMARKS
CP ATTERBURY + FOG       64  63  94 CALM      30.02S VSB 1/2
FRANKFORT +    CLEAR    N/A N/A N/A S3        30.03R
INDIANAPOLIS   PTCLDY    67  65  93 W6        30.01S
-EAGLE CREEK   CLEAR     68  65  90 SW3       30.01S
KOKOMO *+      CLEAR     66  63  88 SW6       30.01R
MARION +       CLEAR     64  64  98 SW5       30.01S
MT COMFORT *+  CLEAR     63 N/A N/A CALM      30.03R
SHELBYVILLE    FOG       65  63  93 CALM      30.01F VSB 1/2
ZIONSVILLE +   CLEAR     66  63  90 CALM      30.03S FOG

$$

INZ033-034-041-042-049-050-058-059-030600-
EAST CENTRAL INDIANA

CITY           SKY/WX    TMP DP  RH WIND       PRES   REMARKS
MUNCIE         CLEAR     67  64  90 SW5       30.01S

$$

INZ060-061-067>069-081>083-085>088-030600-
SOUTHWEST INDIANA

CITY           SKY/WX    TMP DP  RH WIND       PRES   REMARKS
EVANSVILLE     PTCLDY    71  68  90 CALM      30.01S
WASHINGTON +   CLEAR     64  64 100 CALM      30.01S

$$

INZ062-063-066-070>080-084-089>092-030600-
SOUTH CENTRAL AND SOUTHEAST INDIANA

CITY           SKY/WX    TMP DP  RH WIND       PRES   REMARKS
BLOOMINGTON    FOG       63  62  97 CALM      30.03S VSB 1/2

$$



USA.gov is the U.S. government's official web portal to all federal, state and local government web resources and services.